Bangor, ME

12:40 AM EST on December 11, 2019 (GMT -0500)
Bangor International

Weather History for KBGR - October, 2019

Change the Weather History Date:

Friday, October 25, 2019

  Actual Average Record
Temperature  
Mean Temperature 48 °F 44 °F  
Max Temperature 53 °F 54 °F 77 °F (1963)
Min Temperature 44 °F 34 °F 21 °F (1947)
Degree Days  
Heating Degree Days 16 21  
Month to date heating degree days 378 421  
Since 1 July heating degree days 592 693  
Cooling Degree Days 0 0  
Month to date cooling degree days 0 0  
Year to date cooling degree days 336 317  
Moisture  
Dew Point 40 °F    
Average Humidity 71    
Maximum Humidity 86    
Minimum Humidity 54    
Precipitation  
Precipitation T in 0.13 in 1.91 in (2017)
Month to date precipitation 4.47 3.39  
Year to date precipitation 43.49 33.47  
Snow  
Snow 0.00 in 0.00 in 0.00 in (2002)
Month to date snowfall 0.0 0.1  
Since 1 July snowfall 0.0 0.1  
Since 1 September snowfall 0.0 0.1  
Snow Depth 0.00 in    
Sea Level Pressure  
Sea Level Pressure 30.23 in    
Wind  
Wind Speed 3 mph ()    
Max Wind Speed 10 mph    
Max Gust Speed 13 mph    
Visibility 10.0 miles    
Events Rain    
T = Trace of Precipitation, MM = Missing Value Source: Averaged Metar Reports

Daily Weather History Graph

Daily Weather History Graph

Search for Another Location

Airport or City:

Astronomy

Oct. 25, 2019 Rise Set
Actual Time 7:03 AM EDT 5:34 PM EDT
Civil Twilight 6:33 AM EDT 6:04 PM EDT
Nautical Twilight 5:59 AM EDT 6:38 PM EDT
Astronomical Twilight 5:25 AM EDT 7:12 PM EDT
Moon 3:29 AM EDT (10/25) 4:44 PM EDT (10/25)
Length of Visible Light 11h 30m
Length of Day
10h 30m
Waning Crescent, 9% of the Moon is Illuminated
Oct 25
Waning Crescent
Oct 27
New
Nov 4
First Quarter
Nov 12
Full
Nov 19
Last Quarter

Hourly Weather History & Observations

Time (EDT) Temp. Windchill Dew Point Humidity Pressure Visibility Wind Dir Wind Speed Gust Speed Precip Events Conditions
12:53 AM 48.0 °F - 42.1 °F 80% 30.19 in 10.0 mi Calm Calm - N/A   Mostly Cloudy
1:53 AM 50.0 °F - 41.0 °F 71% 30.21 in 10.0 mi WNW 8.1 mph - N/A   Scattered Clouds
2:53 AM 51.1 °F - 39.9 °F 66% 30.23 in 10.0 mi NW 9.2 mph - N/A   Mostly Cloudy
3:53 AM 46.9 °F - 41.0 °F 80% 30.25 in 10.0 mi Calm Calm - N/A   Overcast
4:53 AM 46.0 °F 43.1 °F 39.9 °F 79% 30.26 in 10.0 mi NW 5.8 mph - N/A   Overcast
5:53 AM 46.9 °F - 39.0 °F 74% 30.25 in 10.0 mi NW 5.8 mph - N/A   Overcast
6:53 AM 46.0 °F - 39.0 °F 76% 30.28 in 10.0 mi Calm Calm - N/A   Overcast
7:53 AM 46.0 °F - 39.9 °F 79% 30.30 in 10.0 mi Calm Calm - N/A   Overcast
8:53 AM 48.0 °F - 39.9 °F 74% 30.30 in 10.0 mi WSW 3.5 mph - N/A   Overcast
9:53 AM 50.0 °F - 39.0 °F 66% 30.30 in 10.0 mi WNW 4.6 mph - N/A   Overcast
10:53 AM 50.0 °F - 39.0 °F 66% 30.31 in 10.0 mi NW 4.6 mph - N/A   Overcast
11:53 AM 52.0 °F - 39.0 °F 61% 30.29 in 10.0 mi Variable 5.8 mph - N/A   Overcast
12:53 PM 53.1 °F - 39.0 °F 59% 30.26 in 10.0 mi West 3.5 mph - N/A   Overcast
1:53 PM 53.1 °F - 37.9 °F 57% 30.25 in 10.0 mi WNW 6.9 mph - N/A   Overcast
2:53 PM 53.1 °F - 37.9 °F 57% 30.24 in 10.0 mi NW 4.6 mph - N/A   Overcast
3:53 PM 53.1 °F - 37.9 °F 57% 30.22 in 10.0 mi West 3.5 mph - N/A   Overcast
4:53 PM 52.0 °F - 39.0 °F 61% 30.21 in 10.0 mi Calm Calm - N/A   Overcast
5:53 PM 50.0 °F - 39.9 °F 68% 30.18 in 10.0 mi South 5.8 mph - N/A   Overcast
6:53 PM 48.9 °F - 41.0 °F 74% 30.21 in 10.0 mi Calm Calm - N/A   Overcast
7:53 PM 48.0 °F - 42.1 °F 80% 30.19 in 10.0 mi Calm Calm - N/A   Overcast
8:53 PM 46.9 °F - 42.1 °F 83% 30.19 in 10.0 mi Calm Calm - N/A   Overcast
9:53 PM 46.9 °F - 42.1 °F 83% 30.19 in 10.0 mi Calm Calm - N/A   Overcast
10:53 PM 48.0 °F - 42.1 °F 80% 30.17 in 10.0 mi South 3.5 mph - N/A   Overcast
11:53 PM 48.0 °F - 42.1 °F 80% 30.16 in 10.0 mi South 6.9 mph - 0.00 in Rain Light Rain